Regional Weather Roundup
Issued by NWS Midland/Odessa, TX

Skip options and go directly to product.
Home | Oldest Version | Previous Version | Current Version | All | Text Only | Save Text | Print | Product List | Glossary On

Skip product version selection by date and time.   
304
ASUS44 KMAF 011610
RWRMAF
MIDLAND AREA WEATHER ROUNDUP
NATIONAL WEATHER SERVICE MIDLAND TX
1000 AM CST SUN FEB 01 2015

...IN SOUTHWEST TEXAS AND SOUTHEAST NEW MEXICO...

CITY           SKY/WX    TMP DP  RH WIND       PRES   REMARKS
ALPINE         SUNNY     54  39  58 W3        30.11S
ANDREWS        CLOUDY    45  41  88 NE14G23   30.07R WCI  38
ARTESIA        PTSUNNY   41  41 100 N17G23    30.12R WCI  32
BIG SPRING     CLOUDY    47  43  85 N17       30.08R
CARLSBAD       CLOUDY    43  42  97 NW13      30.08R FOG     WCI  36
DRYDEN           N/A     61  49  64 W9        29.98R
FORT STOCKTON  SUNNY     52  44  74 MISG      30.03R
GUAD PASS      MOSUNNY   40  40 100 SW8       30.08R FOG     WCI  34
HOBBS          PTSUNNY   41  41 100 N18       30.08R WCI  32
MARFA          SUNNY     50  43  76 W12       30.08R
MIDLAND AIRPK  PTSUNNY   48  44  83 N17       30.06R
MIDLAND INTL   PTSUNNY   46  44  93 N18       30.04R WCI  39
ODESSA         PTSUNNY   47  42  83 NE15G22   30.06R
PECOS          SUNNY     43  42  97 N7        30.05R WCI  39
PRESIDIO       FAIR      54  45  70 E8        30.06R
SEMINOLE       MOSUNNY   44  40  86 NE18      30.09R WCI  36
SNYDER         CLOUDY   N/A N/A N/A N17G24    30.07R
WINK           MOSUNNY   48  42  80 N16       30.04R
$$
...OTHER STATIONS IN TEXAS...

CITY           SKY/WX    TMP DP  RH WIND       PRES   REMARKS
ABILENE        CLOUDY    49  45  86 N22G30    30.02R
AMARILLO       CLOUDY    32  26  78 N26G33    30.13R WCI  18
AUSTIN         CLOUDY    65  60  84 SW9       29.93R
BROWNSVILLE    PTSUNNY   70  65  84 S15       29.94R
CORPUS CHRISTI PTSUNNY   68  63  84 S8        29.94S
DALLAS FTW     CLOUDY    55  51  86 NW22      29.92R
DEL RIO        CLOUDY    58  53  84 NW7       29.98R
EL PASO        PTSUNNY   46  43  89 N10       30.08R
HOUSTON INT    PTSUNNY   69  63  81 SW9       29.95S
LUBBOCK        PTSUNNY   41  34  76 N24G31    30.08R WCI  31
SAN ANGELO     PTSUNNY   51  47  86 NW13      30.01R
SAN ANTONIO    CLOUDY    63  60  90 SW6       29.95R FOG
WACO           LGT RAIN  61  57  87 NW14      29.94R
WICHITA FALLS  NOT AVBL
$$
...OTHER LOCATIONS IN NEW MEXICO...

CITY           SKY/WX    TMP DP  RH WIND       PRES   REMARKS
ALAMAGORDO     SUNNY     48  41  76 CALM      30.07R
ALBUQUERQUE    MOSUNNY   35  31  85 E3        30.13R
CANNON AFB     NOT AVBL
CLOVIS         CLOUDY    36  32  87 N22G28    30.10R WCI  24
HOLLOMAN AFB   SUNNY     46  43  90 NW8       30.06R
ROSWELL        CLOUDY    40  36  86 N10       30.11R WCI  33
RUIDOSO        SUNNY     39  28  65 NW8       30.10R WCI  34
SANTA FE       FOG       29  28  96 N9        30.10R VSB 1/4 WCI  20
TRUTH OR CONSE SUNNY     43  37  79 N6        30.09R WCI  39
TUCUMCARI      MOSUNNY   39  32  76 E16       30.12R WCI  30
$$

USA.gov is the U.S. government's official web portal to all federal, state and local government web resources and services.